| time (UTC) | temp C | wind direction | speed KPH | gust KPH | rain 1hr cm | rain 24hr cm | rain mn cm | humidity % | barometer mb |
| 20260507201029 | 16 | 308 | 8.0 | 22.5 | 0.00 | 0.15 | 0.15 | 59 | 1012.4 |
| 20260507200526 | 16 | 335 | 9.7 | 22.5 | 0.00 | 0.15 | 0.15 | 65 | 1012.4 |
| 20260507200052 | 14 | 14 | 11.3 | 22.5 | 0.00 | 0.15 | 0.15 | 63 | 1012.4 |
| 20260507195527 | 14 | 338 | 6.4 | 17.7 | 0.00 | 0.15 | 0.15 | 65 | 1012.8 |
| 20260507195028 | 13 | 8 | 8.0 | 17.7 | 0.00 | 0.15 | 0.15 | 66 | 1012.9 |
| 20260507194538 | 13 | 44 | 8.0 | 16.1 | 0.00 | 0.15 | 0.15 | 67 | 1012.8 |
| 20260507194026 | 13 | 49 | 9.7 | 16.1 | 0.00 | 0.15 | 0.15 | 66 | 1013.3 |
| 20260507193528 | 13 | 32 | 8.0 | 16.1 | 0.00 | 0.15 | 0.15 | 68 | 1013.2 |
| 20260507193102 | 13 | 72 | 6.4 | 16.1 | 0.00 | 0.15 | 0.15 | 70 | 1013.1 |
| 20260507192524 | 13 | 39 | 6.4 | 14.5 | 0.00 | 0.15 | 0.15 | 69 | 1013.3 |
| 20260507192025 | 13 | 325 | 3.2 | 14.5 | 0.00 | 0.15 | 0.15 | 69 | 1013.5 |
| 20260507191537 | 13 | 32 | 6.4 | 16.1 | 0.00 | 0.15 | 0.15 | 67 | 1013.6 |
| 20260507191027 | 13 | 54 | 4.8 | 17.7 | 0.00 | 0.15 | 0.15 | 68 | 1013.4 |
| 20260507190527 | 13 | 31 | 8.0 | 17.7 | 0.00 | 0.15 | 0.15 | 68 | 1013.3 |
| 20260507190039 | 13 | 32 | 6.4 | 17.7 | 0.00 | 0.15 | 0.15 | 67 | 1013.3 |
| 20260507185528 | 13 | 39 | 9.7 | 19.3 | 0.00 | 0.15 | 0.15 | 67 | 1013.3 |
| 20260507185028 | 13 | 10 | 9.7 | 19.3 | 0.00 | 0.15 | 0.15 | 69 | 1013.4 |
| 20260507184540 | 13 | 56 | 8.0 | 16.1 | 0.00 | 0.15 | 0.15 | 68 | 1013.5 |
| 20260507184026 | 13 | 39 | 8.0 | 16.1 | 0.00 | 0.15 | 0.15 | 68 | 1013.8 |
| 20260507183530 | 13 | 44 | 6.4 | 12.9 | 0.00 | 0.15 | 0.15 | 65 | 1013.6 |
| 20260507183040 | 13 | 108 | 6.4 | 16.1 | 0.00 | 0.15 | 0.15 | 66 | 1013.6 |
| 20260507182527 | 13 | 21 | 8.0 | 16.1 | 0.00 | 0.15 | 0.15 | 66 | 1013.6 |
| 20260507182026 | 13 | 37 | 9.7 | 19.3 | 0.00 | 0.15 | 0.15 | 66 | 1013.6 |
| 20260507181536 | 13 | 82 | 6.4 | 19.3 | 0.00 | 0.15 | 0.15 | 65 | 1013.6 |
| 20260507181028 | 13 | 354 | 8.0 | 16.1 | 0.00 | 0.15 | 0.15 | 68 | 1013.5 |
| 20260507180526 | 13 | 96 | 8.0 | 16.1 | 0.00 | 0.15 | 0.15 | 71 | 1013.5 |
| 20260507180037 | 13 | 28 | 8.0 | 12.9 | 0.00 | 0.15 | 0.15 | 73 | 1013.5 |
| 20260507175526 | 12 | 86 | 6.4 | 16.1 | 0.00 | 0.15 | 0.15 | 72 | 1013.5 |
| 20260507175028 | 12 | 68 | 6.4 | 16.1 | 0.00 | 0.15 | 0.15 | 76 | 1013.5 |
| 20260507174536 | 13 | 35 | 6.4 | 16.1 | 0.00 | 0.15 | 0.15 | 74 | 1013.7 |
| 20260507174025 | 12 | 51 | 9.7 | 16.1 | 0.00 | 0.15 | 0.15 | 74 | 1013.6 |
| 20260507173526 | 13 | 35 | 6.4 | 16.1 | 0.00 | 0.15 | 0.15 | 75 | 1013.6 |
| 20260507173047 | 12 | 83 | 8.0 | 14.5 | 0.00 | 0.15 | 0.15 | 75 | 1013.6 |
| 20260507172542 | 12 | 27 | 6.4 | 14.5 | 0.00 | 0.15 | 0.15 | 74 | 1013.7 |
| 20260507172025 | 12 | 21 | 6.4 | 14.5 | 0.00 | 0.15 | 0.15 | 76 | 1013.7 |
| 20260507171538 | 12 | 34 | 6.4 | 14.5 | 0.00 | 0.15 | 0.15 | 77 | 1013.8 |
| 20260507171027 | 12 | 60 | 8.0 | 14.5 | 0.00 | 0.15 | 0.15 | 76 | 1013.7 |
| 20260507170527 | 11 | 20 | 8.0 | 19.3 | 0.00 | 0.15 | 0.15 | 77 | 1013.9 |
| 20260507170038 | 11 | 70 | 6.4 | 19.3 | 0.00 | 0.15 | 0.15 | 76 | 1013.9 |
| 20260507165526 | 11 | 61 | 9.7 | 17.7 | 0.00 | 0.15 | 0.15 | 75 | 1013.8 |
| 20260507165029 | 12 | 8 | 8.0 | 14.5 | 0.00 | 0.15 | 0.15 | 76 | 1013.9 |
| 20260507164538 | 11 | 83 | 6.4 | 14.5 | 0.00 | 0.15 | 0.15 | 76 | 1013.9 |
| 20260507164029 | 11 | 37 | 6.4 | 14.5 | 0.00 | 0.15 | 0.15 | 76 | 1014.0 |
| 20260507163526 | 11 | 1 | 6.4 | 12.9 | 0.00 | 0.15 | 0.15 | 79 | 1013.9 |
| 20260507163043 | 10 | 16 | 4.8 | 12.9 | 0.00 | 0.15 | 0.15 | 79 | 1014.0 |
| 20260507162525 | 10 | 101 | 6.4 | 12.9 | 0.00 | 0.15 | 0.15 | 80 | 1013.9 |
| 20260507162027 | 10 | 350 | 4.8 | 12.9 | 0.00 | 0.15 | 0.15 | 81 | 1014.0 |
| 20260507161551 | 10 | 1 | 6.4 | 12.9 | 0.00 | 0.15 | 0.15 | 79 | 1014.0 |
| 20260507161025 | 10 | 26 | 4.8 | 12.9 | 0.00 | 0.15 | 0.15 | 81 | 1014.2 |
| 20260507160525 | 10 | 19 | 6.4 | 14.5 | 0.00 | 0.15 | 0.15 | 81 | 1014.2 |
| 20260507160057 | 10 | 54 | 6.4 | 16.1 | 0.00 | 0.15 | 0.15 | 81 | 1014.0 |
| 20260507155528 | 10 | 37 | 8.0 | 16.1 | 0.00 | 0.15 | 0.15 | 82 | 1013.9 |
| 20260507155025 | 10 | 86 | 4.8 | 16.1 | 0.00 | 0.15 | 0.15 | 83 | 1013.9 |
| 20260507154537 | 9 | 71 | 6.4 | 16.1 | 0.00 | 0.15 | 0.15 | 83 | 1013.9 |
| 20260507154024 | 10 | 33 | 8.0 | 16.1 | 0.00 | 0.15 | 0.15 | 84 | 1013.9 |
| 20260507153524 | 10 | 32 | 6.4 | 12.9 | 0.00 | 0.15 | 0.15 | 83 | 1013.9 |
| 20260507153036 | 9 | 76 | 6.4 | 14.5 | 0.00 | 0.15 | 0.15 | 83 | 1013.7 |
| 20260507152523 | 9 | 98 | 8.0 | 14.5 | 0.00 | 0.15 | 0.15 | 82 | 1013.6 |
| 20260507152026 | 9 | 85 | 6.4 | 12.9 | 0.00 | 0.15 | 0.15 | 83 | 1013.6 |
| 20260507151536 | 9 | 74 | 4.8 | 11.3 | 0.00 | 0.15 | 0.15 | 85 | 1013.7 |
| 20260507151024 | 8 | 90 | 6.4 | 11.3 | 0.00 | 0.15 | 0.15 | 86 | 1013.6 |
| 20260507150524 | 8 | 91 | 6.4 | 9.7 | 0.00 | 0.15 | 0.15 | 87 | 1013.8 |
| 20260507150040 | 8 | 45 | 4.8 | 9.7 | 0.00 | 0.15 | 0.15 | 86 | 1014.0 |
| 20260507145523 | 8 | 44 | 4.8 | 9.7 | 0.00 | 0.15 | 0.15 | 86 | 1014.1 |
| 20260507145029 | 8 | 69 | 4.8 | 9.7 | 0.00 | 0.15 | 0.15 | 86 | 1014.0 |
| 20260507144548 | 8 | 70 | 3.2 | 9.7 | 0.00 | 0.15 | 0.15 | 85 | 1014.2 |
| 20260507144027 | 8 | 22 | 3.2 | 8.0 | 0.00 | 0.15 | 0.15 | 85 | 1014.2 |
| 20260507143524 | 8 | 61 | 3.2 | 6.4 | 0.00 | 0.15 | 0.15 | 85 | 1014.0 |
| 20260507143036 | 8 | 120 | 3.2 | 6.4 | 0.03 | 0.15 | 0.15 | 86 | 1014.0 |
| 20260507142525 | 8 | 60 | 3.2 | 6.4 | 0.03 | 0.15 | 0.15 | 86 | 1014.0 |
| 20260507142024 | 8 | 82 | 3.2 | 6.4 | 0.05 | 0.15 | 0.15 | 87 | 1013.9 |
| 20260507141544 | 8 | 0 | 0.0 | 8.0 | 0.05 | 0.15 | 0.15 | 88 | 1013.8 |
| 20260507141026 | 7 | 46 | 3.2 | 8.0 | 0.05 | 0.15 | 0.15 | 88 | 1013.7 |
| 20260507140524 | 7 | 43 | 4.8 | 9.7 | 0.05 | 0.15 | 0.15 | 88 | 1013.7 |
| 20260507140041 | 7 | 0 | 0.0 | 11.3 | 0.05 | 0.15 | 0.15 | 88 | 1013.6 |
| 20260507135524 | 7 | 126 | 3.2 | 11.3 | 0.05 | 0.15 | 0.15 | 89 | 1013.1 |
| 20260507135025 | 7 | 165 | 4.8 | 11.3 | 0.05 | 0.15 | 0.15 | 89 | 1013.2 |
| 20260507134537 | 7 | 188 | 3.2 | 8.0 | 0.05 | 0.15 | 0.15 | 89 | 1013.4 |
| 20260507134026 | 7 | 127 | 3.2 | 12.9 | 0.05 | 0.15 | 0.15 | 89 | 1013.4 |
| 20260507133525 | 7 | 133 | 4.8 | 12.9 | 0.05 | 0.15 | 0.15 | 89 | 1013.1 |
| 20260507133038 | 7 | 203 | 4.8 | 9.7 | 0.03 | 0.13 | 0.13 | 90 | 1013.1 |
| 20260507132524 | 7 | 185 | 4.8 | 9.7 | 0.03 | 0.13 | 0.13 | 90 | 1013.1 |
| 20260507132024 | 7 | 140 | 3.2 | 8.0 | 0.00 | 0.10 | 0.10 | 90 | 1013.2 |
| 20260507131537 | 7 | 0 | 1.6 | 6.4 | 0.00 | 0.10 | 0.10 | 90 | 1013.3 |
| 20260507131024 | 7 | 154 | 3.2 | 6.4 | 0.00 | 0.10 | 0.10 | 90 | 1013.3 |
| 20260507130526 | 7 | 195 | 1.6 | 4.8 | 0.00 | 0.10 | 0.10 | 90 | 1013.7 |
| 20260507130041 | 7 | 193 | 1.6 | 4.8 | 0.00 | 0.10 | 0.10 | 90 | 1013.7 |
| 20260507125523 | 7 | 0 | 0.0 | 9.7 | 0.00 | 0.10 | 0.10 | 90 | 1013.7 |
| 20260507125026 | 7 | 328 | 1.6 | 9.7 | 0.00 | 0.10 | 0.10 | 90 | 1013.7 |
| 20260507124540 | 7 | 359 | 4.8 | 8.0 | 0.00 | 0.10 | 0.10 | 90 | 1013.7 |
| 20260507124023 | 7 | 0 | 0.0 | 0.0 | 0.00 | 0.10 | 0.10 | 90 | 1013.3 |
| 20260507123524 | 7 | 0 | 0.0 | 0.0 | 0.03 | 0.10 | 0.10 | 90 | 1013.1 |
| 20260507123043 | 7 | 0 | 0.0 | 3.2 | 0.03 | 0.10 | 0.10 | 89 | 1013.0 |
| 20260507122525 | 7 | 0 | 0.0 | 8.0 | 0.03 | 0.10 | 0.10 | 90 | 1012.8 |
| 20260507122026 | 7 | 138 | 0.0 | 8.0 | 0.03 | 0.10 | 0.10 | 89 | 1012.7 |
| 20260507121538 | 7 | 169 | 3.2 | 8.0 | 0.03 | 0.10 | 0.10 | 89 | 1012.5 |
| 20260507121024 | 7 | 163 | 1.6 | 8.0 | 0.03 | 0.10 | 0.10 | 90 | 1012.6 |
| 20260507120523 | 7 | 226 | 3.2 | 8.0 | 0.03 | 0.10 | 0.10 | 90 | 1012.7 |
| 20260507120043 | 7 | 200 | 3.2 | 8.0 | 0.03 | 0.10 | 0.10 | 89 | 1012.6 |
| 20260507115523 | 7 | 210 | 3.2 | 6.4 | 0.03 | 0.10 | 0.10 | 89 | 1012.5 |
| 20260507115023 | 7 | 176 | 3.2 | 6.4 | 0.03 | 0.10 | 0.10 | 89 | 1012.4 |
| 20260507114545 | 7 | 245 | 1.6 | 4.8 | 0.03 | 0.10 | 0.10 | 89 | 1012.6 |
| 20260507114023 | 7 | 0 | 1.6 | 4.8 | 0.03 | 0.10 | 0.10 | 89 | 1012.6 |
| 20260507113523 | 7 | 188 | 1.6 | 4.8 | 0.00 | 0.08 | 0.08 | 89 | 1012.7 |
| 20260507113038 | 7 | 81 | 1.6 | 4.8 | 0.00 | 0.08 | 0.08 | 88 | 1013.1 |
| 20260507112524 | 7 | 0 | 0.0 | 6.4 | 0.00 | 0.08 | 0.08 | 88 | 1012.8 |
| 20260507112024 | 7 | 191 | 1.6 | 6.4 | 0.00 | 0.08 | 0.08 | 88 | 1012.7 |
| 20260507111545 | 7 | 223 | 3.2 | 6.4 | 0.03 | 0.08 | 0.08 | 88 | 1012.8 |
| 20260507111023 | 7 | 172 | 1.6 | 9.7 | 0.03 | 0.08 | 0.08 | 88 | 1012.7 |
| 20260507110523 | 7 | 0 | 3.2 | 9.7 | 0.05 | 0.08 | 0.08 | 88 | 1012.8 |
| 20260507110044 | 7 | 212 | 0.0 | 6.4 | 0.05 | 0.08 | 0.08 | 88 | 1012.9 |
| 20260507105525 | 7 | 0 | 1.6 | 8.0 | 0.08 | 0.08 | 0.08 | 88 | 1012.8 |
| 20260507105023 | 7 | 216 | 3.2 | 8.0 | 0.08 | 0.08 | 0.08 | 87 | 1012.8 |
| 20260507104544 | 8 | 222 | 0.0 | 6.4 | 0.08 | 0.08 | 0.08 | 87 | 1012.5 |
| 20260507104023 | 8 | 224 | 3.2 | 6.4 | 0.08 | 0.08 | 0.08 | 86 | 1012.8 |
| 20260507103526 | 8 | 0 | 0.0 | 6.4 | 0.08 | 0.08 | 0.08 | 85 | 1012.8 |
| 20260507103040 | 8 | 250 | 3.2 | 6.4 | 0.08 | 0.08 | 0.08 | 85 | 1013.3 |
| 20260507102525 | 8 | 203 | 1.6 | 11.3 | 0.08 | 0.08 | 0.08 | 85 | 1013.1 |
| 20260507102026 | 8 | 134 | 3.2 | 11.3 | 0.08 | 0.08 | 0.08 | 84 | 1013.0 |
| 20260507101543 | 8 | 68 | 4.8 | 11.3 | 0.05 | 0.05 | 0.05 | 84 | 1012.9 |
| 20260507101027 | 8 | 76 | 3.2 | 8.0 | 0.05 | 0.05 | 0.05 | 83 | 1013.0 |
| 20260507100525 | 8 | 50 | 3.2 | 4.8 | 0.03 | 0.03 | 0.03 | 81 | 1013.0 |
| 20260507100037 | 8 | 84 | 1.6 | 6.4 | 0.00 | 0.00 | 0.00 | 80 | 1013.0 |
| 20260507095524 | 8 | 45 | 1.6 | 14.5 | 0.00 | 0.00 | 0.00 | 79 | 1013.1 |
| 20260507095029 | 8 | 342 | 4.8 | 16.1 | 0.00 | 0.00 | 0.00 | 78 | 1013.3 |
| 20260507094541 | 9 | 300 | 6.4 | 16.1 | 0.00 | 0.00 | 0.00 | 78 | 1013.2 |
| 20260507094027 | 9 | 360 | 6.4 | 16.1 | 0.00 | 0.00 | 0.00 | 76 | 1013.2 |
| 20260507093523 | 9 | 359 | 6.4 | 22.5 | 0.00 | 0.00 | 0.00 | 75 | 1013.1 |
| 20260507093043 | 10 | 343 | 11.3 | 25.7 | 0.00 | 0.00 | 0.00 | 73 | 1013.3 |
| 20260507092523 | 10 | 343 | 12.9 | 29.0 | 0.00 | 0.00 | 0.00 | 72 | 1013.4 |
| 20260507092023 | 10 | 352 | 12.9 | 29.0 | 0.00 | 0.00 | 0.00 | 71 | 1013.3 |
| 20260507091540 | 10 | 350 | 12.9 | 25.7 | 0.00 | 0.00 | 0.00 | 69 | 1013.2 |
| 20260507091023 | 10 | 312 | 8.0 | 22.5 | 0.00 | 0.00 | 0.00 | 70 | 1013.0 |
| 20260507090525 | 10 | 333 | 8.0 | 22.5 | 0.00 | 0.00 | 0.00 | 70 | 1012.9 |
| 20260507090038 | 10 | 311 | 9.7 | 24.1 | 0.00 | 0.00 | 0.00 | 69 | 1012.9 |
| 20260507085527 | 10 | 316 | 11.3 | 24.1 | 0.00 | 0.00 | 0.00 | 68 | 1012.8 |
| 20260507085024 | 10 | 296 | 9.7 | 24.1 | 0.00 | 0.00 | 0.00 | 68 | 1012.6 |
| 20260507084541 | 9 | 315 | 4.8 | 16.1 | 0.00 | 0.00 | 0.00 | 65 | 1012.5 |
| 20260507084028 | 9 | 341 | 4.8 | 9.7 | 0.00 | 0.00 | 0.00 | 56 | 1012.7 |
| 20260507083526 | 8 | 358 | 1.6 | 9.7 | 0.00 | 0.00 | 0.00 | 52 | 1012.7 |
| 20260507083039 | 9 | 313 | 3.2 | 9.7 | 0.00 | 0.00 | 0.00 | 55 | 1013.0 |
| 20260507082524 | 9 | 335 | 1.6 | 14.5 | 0.00 | 0.00 | 0.00 | 54 | 1013.0 |
| 20260507082023 | 8 | 0 | 4.8 | 14.5 | 0.00 | 0.00 | 0.00 | 51 | 1012.9 |
| 20260507081538 | 8 | 349 | 4.8 | 12.9 | 0.00 | 0.00 | 0.00 | 50 | 1012.8 |
| 20260507081025 | 8 | 344 | 3.2 | 12.9 | 0.00 | 0.00 | 0.00 | 55 | 1012.7 |
| 20260507080526 | 8 | 146 | 1.6 | 4.8 | 0.00 | 0.00 | 0.00 | 52 | 1012.4 |
| 20260507080040 | 8 | 319 | 1.6 | 3.2 | 0.00 | 0.00 | 0.00 | 44 | 1012.5 |
| 20260507075525 | 8 | 319 | 1.6 | 6.4 | 0.00 | 0.00 | 0.00 | 42 | 1012.3 |
| 20260507075025 | 8 | 319 | 1.6 | 6.4 | 0.00 | 0.00 | 0.00 | 42 | 1012.3 |
| 20260507074539 | 9 | 351 | 3.2 | 6.4 | 0.00 | 0.00 | 0.00 | 40 | 1012.1 |
| 20260507074023 | 10 | 0 | 0.0 | 4.8 | 0.00 | 0.00 | 0.00 | 38 | 1011.7 |
| 20260507073525 | 10 | 61 | 1.6 | 6.4 | 0.00 | 0.00 | 0.00 | 36 | 1011.6 |
| 20260507073039 | 10 | 0 | 1.6 | 8.0 | 0.00 | 0.00 | 0.00 | 34 | 1011.8 |
| 20260507072523 | 10 | 98 | 3.2 | 11.3 | 0.00 | 0.00 | 0.00 | 34 | 1011.8 |
| 20260507072022 | 9 | 157 | 3.2 | 11.3 | 0.00 | 0.00 | 0.00 | 38 | 1011.8 |
| 20260507071536 | 9 | 169 | 3.2 | 11.3 | 0.00 | 0.00 | 0.00 | 36 | 1011.9 |
| 20260507071025 | 9 | 0 | 0.0 | 3.2 | 0.00 | 0.00 | 0.00 | 39 | 1011.9 |
| 20260507070523 | 9 | 0 | 0.0 | 4.8 | 0.00 | 0.00 | 0.00 | 39 | 1012.1 |
| 20260507070037 | 9 | 281 | 1.6 | 6.4 | 0.00 | 0.00 | 0.00 | 38 | 1012.1 |
| 20260507065523 | 10 | 334 | 3.2 | 6.4 | 0.00 | 0.00 | 0.00 | 38 | 1012.0 |
| 20260507065024 | 10 | 336 | 3.2 | 6.4 | 0.00 | 0.00 | 0.00 | 38 | 1011.9 |
| 20260507064550 | 10 | 0 | 0.0 | 3.2 | 0.00 | 0.00 | 0.00 | 34 | 1011.6 |
| 20260507064023 | 11 | 202 | 0.0 | 9.7 | 0.00 | 0.00 | 0.00 | 34 | 1011.5 |
| 20260507063523 | 11 | 201 | 1.6 | 9.7 | 0.00 | 0.00 | 0.00 | 32 | 1011.3 |
| 20260507063037 | 11 | 210 | 1.6 | 9.7 | 0.00 | 0.00 | 0.00 | 32 | 1011.3 |
| 20260507062523 | 11 | 215 | 3.2 | 9.7 | 0.00 | 0.00 | 0.00 | 32 | 1011.2 |
| 20260507062026 | 11 | 162 | 3.2 | 8.0 | 0.00 | 0.00 | 0.00 | 32 | 1011.1 |
| 20260507061538 | 11 | 174 | 1.6 | 12.9 | 0.00 | 0.00 | 0.00 | 32 | 1011.1 |
| 20260507061023 | 11 | 149 | 4.8 | 12.9 | 0.00 | 0.00 | 0.00 | 32 | 1011.2 |
| 20260507060525 | 11 | 196 | 3.2 | 20.9 | 0.00 | 0.00 | 0.00 | 32 | 1011.2 |
| 20260507060037 | 11 | 214 | 4.8 | 20.9 | 0.00 | 0.00 | 0.00 | 31 | 1011.5 |
| 20260507055524 | 11 | 117 | 8.0 | 20.9 | 0.00 | 0.00 | 0.00 | 30 | 1011.4 |
| 20260507055024 | 11 | 169 | 4.8 | 11.3 | 0.00 | 0.00 | 0.00 | 31 | 1011.5 |
| 20260507054540 | 10 | 183 | 4.8 | 11.3 | 0.00 | 0.00 | 0.00 | 32 | 1011.6 |
| 20260507054027 | 11 | 156 | 4.8 | 11.3 | 0.00 | 0.00 | 0.00 | 32 | 1011.9 |
| 20260507053523 | 10 | 134 | 6.4 | 11.3 | 0.00 | 0.00 | 0.00 | 30 | 1012.1 |
| 20260507053044 | 10 | 154 | 4.8 | 8.0 | 0.00 | 0.00 | 0.00 | 32 | 1012.5 |
| 20260507052523 | 10 | 139 | 3.2 | 8.0 | 0.00 | 0.00 | 0.00 | 32 | 1012.8 |
| 20260507052023 | 10 | 341 | 3.2 | 6.4 | 0.00 | 0.00 | 0.00 | 37 | 1012.8 |
| 20260507051538 | 10 | 305 | 0.0 | 8.0 | 0.00 | 0.00 | 0.00 | 35 | 1012.7 |
| 20260507051022 | 10 | 0 | 1.6 | 11.3 | 0.00 | 0.00 | 0.00 | 35 | 1012.6 |
| 20260507050523 | 10 | 25 | 4.8 | 11.3 | 0.00 | 0.00 | 0.00 | 36 | 1012.1 |
| 20260507050040 | 10 | 25 | 4.8 | 8.0 | 0.00 | 0.00 | 0.00 | 36 | 1011.9 |
| 20260507045527 | 10 | 24 | 1.6 | 8.0 | 0.00 | 0.00 | 0.00 | 34 | 1011.9 |
| 20260507045027 | 10 | 53 | 3.2 | 8.0 | 0.00 | 0.00 | 0.00 | 32 | 1011.9 |
| 20260507044537 | 11 | 31 | 3.2 | 8.0 | 0.00 | 0.00 | 0.00 | 30 | 1012.0 |
| 20260507044026 | 11 | 68 | 3.2 | 8.0 | 0.00 | 0.00 | 0.00 | 29 | 1012.0 |
| 20260507043524 | 11 | 87 | 1.6 | 6.4 | 0.00 | 0.00 | 0.00 | 29 | 1011.9 |
| 20260507043038 | 11 | 79 | 1.6 | 6.4 | 0.00 | 0.00 | 0.00 | 31 | 1012.0 |
| 20260507042525 | 11 | 144 | 1.6 | 6.4 | 0.00 | 0.00 | 0.00 | 29 | 1011.9 |
| 20260507042025 | 11 | 138 | 1.6 | 8.0 | 0.00 | 0.00 | 0.00 | 29 | 1011.8 |
| 20260507041549 | 11 | 114 | 3.2 | 8.0 | 0.00 | 0.00 | 0.00 | 29 | 1011.8 |
| 20260507041023 | 11 | 232 | 0.0 | 3.2 | 0.00 | 0.00 | 0.00 | 29 | 1012.0 |
| 20260507040527 | 11 | 231 | 1.6 | 6.4 | 0.00 | 0.00 | 0.00 | 29 | 1012.2 |
| 20260507040039 | 11 | 231 | 1.6 | 6.4 | 0.00 | 0.00 | 0.00 | 29 | 1011.9 |
| 20260507035524 | 11 | 193 | 1.6 | 4.8 | 0.00 | 0.00 | 0.00 | 29 | 1011.8 |
| 20260507035023 | 11 | 130 | 1.6 | 6.4 | 0.00 | 0.00 | 0.00 | 29 | 1012.0 |
| 20260507034538 | 11 | 119 | 1.6 | 6.4 | 0.00 | 0.00 | 0.00 | 28 | 1012.2 |
| 20260507034023 | 11 | 115 | 3.2 | 8.0 | 0.00 | 0.00 | 0.00 | 30 | 1012.0 |
| 20260507033531 | 11 | 172 | 3.2 | 8.0 | 0.00 | 0.00 | 0.00 | 29 | 1012.1 |
| 20260507033037 | 11 | 146 | 1.6 | 6.4 | 0.00 | 0.00 | 0.00 | 30 | 1012.1 |
| 20260507032526 | 11 | 34 | 0.0 | 8.0 | 0.00 | 0.00 | 0.00 | 31 | 1012.3 |
| 20260507032023 | 11 | 0 | 0.0 | 8.0 | 0.00 | 0.00 | 0.00 | 29 | 1012.1 |
| 20260507031543 | 11 | 41 | 3.2 | 8.0 | 0.00 | 0.00 | 0.00 | 29 | 1011.9 |
| 20260507031023 | 11 | 235 | 0.0 | 6.4 | 0.00 | 0.00 | 0.00 | 29 | 1011.8 |
| 20260507030526 | 11 | 232 | 1.6 | 6.4 | 0.00 | 0.00 | 0.00 | 29 | 1011.7 |
| 20260507030038 | 11 | 0 | 0.0 | 4.8 | 0.00 | 0.00 | 0.00 | 29 | 1011.7 |
| 20260507025523 | 11 | 0 | 0.0 | 4.8 | 0.00 | 0.00 | 0.00 | 29 | 1011.7 |
| 20260507025026 | 11 | 0 | 0.0 | 4.8 | 0.00 | 0.00 | 0.00 | 28 | 1011.6 |
| 20260507024542 | 11 | 82 | 0.0 | 4.8 | 0.00 | 0.00 | 0.00 | 27 | 1011.6 |
| 20260507024024 | 12 | 0 | 0.0 | 4.8 | 0.00 | 0.00 | 0.00 | 29 | 1011.6 |
| 20260507023525 | 12 | 136 | 0.0 | 6.4 | 0.00 | 0.00 | 0.00 | 27 | 1011.6 |
| 20260507023037 | 12 | 135 | 1.6 | 6.4 | 0.00 | 0.00 | 0.00 | 27 | 1011.6 |
| 20260507022523 | 12 | 179 | 1.6 | 4.8 | 0.00 | 0.00 | 0.00 | 28 | 1011.8 |
| 20260507022024 | 12 | 122 | 0.0 | 6.4 | 0.00 | 0.00 | 0.00 | 27 | 1011.6 |
| 20260507021537 | 12 | 0 | 3.2 | 8.0 | 0.00 | 0.00 | 0.00 | 27 | 1011.5 |
| 20260507021029 | 12 | 0 | 1.6 | 9.7 | 0.00 | 0.00 | 0.00 | 26 | 1011.5 |
| 20260507020526 | 12 | 144 | 3.2 | 9.7 | 0.00 | 0.00 | 0.00 | 26 | 1011.4 |
| 20260507020045 | 12 | 131 | 3.2 | 12.9 | 0.00 | 0.00 | 0.00 | 27 | 1011.6 |
| 20260507015522 | 13 | 124 | 4.8 | 12.9 | 0.00 | 0.00 | 0.00 | 26 | 1011.5 |
| 20260507015029 | 13 | 97 | 4.8 | 17.7 | 0.00 | 0.00 | 0.00 | 26 | 1011.3 |
| 20260507014554 | 13 | 139 | 8.0 | 17.7 | 0.00 | 0.00 | 0.00 | 25 | 1011.4 |
| 20260507014029 | 13 | 146 | 6.4 | 14.5 | 0.00 | 0.00 | 0.00 | 26 | 1011.3 |
| 20260507013522 | 13 | 159 | 4.8 | 17.7 | 0.00 | 0.00 | 0.00 | 25 | 1011.5 |
| 20260507013045 | 13 | 153 | 8.0 | 17.7 | 0.00 | 0.00 | 0.00 | 24 | 1011.4 |
| 20260507012524 | 14 | 158 | 4.8 | 17.7 | 0.00 | 0.00 | 0.00 | 25 | 1011.3 |
| 20260507012025 | 14 | 103 | 4.8 | 17.7 | 0.00 | 0.00 | 0.00 | 25 | 1011.3 |
| 20260507011540 | 14 | 89 | 8.0 | 17.7 | 0.00 | 0.00 | 0.00 | 24 | 1011.4 |
| 20260507011023 | 15 | 97 | 8.0 | 16.1 | 0.00 | 0.00 | 0.00 | 24 | 1011.4 |
| 20260507010522 | 15 | 115 | 6.4 | 14.5 | 0.00 | 0.00 | 0.00 | 24 | 1011.4 |
| 20260507010036 | 15 | 120 | 8.0 | 16.1 | 0.00 | 0.00 | 0.00 | 24 | 1011.5 |
| 20260507005523 | 15 | 170 | 8.0 | 16.1 | 0.00 | 0.00 | 0.00 | 24 | 1011.6 |
| 20260507005023 | 15 | 97 | 6.4 | 14.5 | 0.00 | 0.00 | 0.00 | 24 | 1011.6 |
| 20260507004535 | 15 | 142 | 6.4 | 16.1 | 0.00 | 0.00 | 0.00 | 24 | 1011.6 |
| 20260507004023 | 15 | 114 | 3.2 | 16.1 | 0.00 | 0.00 | 0.00 | 25 | 1011.6 |
| 20260507003523 | 15 | 151 | 8.0 | 16.1 | 0.00 | 0.00 | 0.00 | 24 | 1011.6 |
| 20260507003038 | 15 | 184 | 4.8 | 14.5 | 0.00 | 0.00 | 0.00 | 25 | 1011.7 |
| 20260507002523 | 15 | 159 | 9.7 | 14.5 | 0.00 | 0.00 | 0.00 | 24 | 1011.6 |
| 20260507002023 | 15 | 180 | 6.4 | 19.3 | 0.00 | 0.00 | 0.00 | 26 | 1011.6 |
| 20260507001544 | 15 | 103 | 8.0 | 19.3 | 0.00 | 0.00 | 0.00 | 23 | 1011.8 |
| 20260507001022 | 15 | 174 | 6.4 | 17.7 | 0.00 | 0.00 | 0.00 | 25 | 1011.8 |
| 20260507000526 | 15 | 122 | 8.0 | 17.7 | 0.00 | 0.00 | 0.00 | 24 | 1011.8 |
| 20260507000036 | 15 | 149 | 9.7 | 16.1 | 0.00 | 0.00 | 0.00 | 24 | 1011.8 |
| 20260506235523 | 15 | 146 | 4.8 | 16.1 | 0.00 | 0.00 | 0.00 | 25 | 1011.8 |
| 20260506235022 | 15 | 190 | 9.7 | 16.1 | 0.00 | 0.00 | 0.00 | 24 | 1012.0 |
| 20260506234536 | 15 | 139 | 4.8 | 16.1 | 0.00 | 0.00 | 0.00 | 26 | 1012.0 |
| 20260506234022 | 15 | 143 | 8.0 | 20.9 | 0.00 | 0.00 | 0.00 | 25 | 1012.0 |
| 20260506233523 | 15 | 199 | 8.0 | 20.9 | 0.00 | 0.00 | 0.00 | 26 | 1012.1 |
| 20260506233043 | 15 | 100 | 4.8 | 14.5 | 0.00 | 0.00 | 0.00 | 26 | 1012.1 |
| 20260506232522 | 15 | 114 | 4.8 | 14.5 | 0.00 | 0.00 | 0.00 | 23 | 1012.1 |
| 20260506232023 | 15 | 124 | 6.4 | 17.7 | 0.00 | 0.00 | 0.00 | 26 | 1012.1 |
| 20260506231540 | 15 | 190 | 4.8 | 17.7 | 0.00 | 0.00 | 0.00 | 26 | 1012.1 |
| 20260506231024 | 15 | 91 | 8.0 | 19.3 | 0.00 | 0.00 | 0.00 | 24 | 1012.2 |
| 20260506230522 | 15 | 183 | 8.0 | 19.3 | 0.00 | 0.00 | 0.00 | 26 | 1012.3 |
| 20260506230037 | 15 | 105 | 9.7 | 19.3 | 0.00 | 0.00 | 0.00 | 24 | 1012.4 |
| 20260506225526 | 15 | 143 | 8.0 | 19.3 | 0.00 | 0.00 | 0.00 | 24 | 1012.3 |
| 20260506225029 | 15 | 133 | 6.4 | 19.3 | 0.00 | 0.00 | 0.00 | 24 | 1012.3 |
| 20260506224540 | 15 | 0 | 8.0 | 17.7 | 0.00 | 0.00 | 0.00 | 25 | 1012.3 |
| 20260506224026 | 15 | 103 | 8.0 | 17.7 | 0.00 | 0.00 | 0.00 | 25 | 1012.5 |
| 20260506223526 | 15 | 101 | 8.0 | 19.3 | 0.00 | 0.00 | 0.00 | 25 | 1012.5 |
| 20260506223100 | 15 | 94 | 8.0 | 19.3 | 0.00 | 0.00 | 0.00 | 25 | 1012.5 |
| 20260506222526 | 15 | 122 | 8.0 | 19.3 | 0.00 | 0.00 | 0.00 | 26 | 1012.6 |
| 20260506222027 | 15 | 57 | 6.4 | 17.7 | 0.00 | 0.00 | 0.00 | 29 | 1012.8 |
| 20260506221543 | 15 | 139 | 9.7 | 17.7 | 0.00 | 0.00 | 0.00 | 25 | 1012.8 |
| 20260506221026 | 15 | 153 | 6.4 | 16.1 | 0.00 | 0.00 | 0.00 | 24 | 1013.0 |
| 20260506220527 | 15 | 124 | 6.4 | 16.1 | 0.00 | 0.00 | 0.00 | 24 | 1013.1 |
| 20260506220039 | 15 | 63 | 6.4 | 19.3 | 0.00 | 0.00 | 0.00 | 24 | 1013.1 |
| 20260506215526 | 15 | 8 | 8.0 | 20.9 | 0.00 | 0.00 | 0.00 | 23 | 1013.1 |
| 20260506215026 | 15 | 85 | 8.0 | 20.9 | 0.00 | 0.00 | 0.00 | 25 | 1013.2 |
| 20260506214540 | 14 | 80 | 6.4 | 12.9 | 0.00 | 0.00 | 0.00 | 27 | 1013.3 |
| 20260506214027 | 14 | 144 | 4.8 | 12.9 | 0.00 | 0.00 | 0.00 | 23 | 1013.3 |
| 20260506213526 | 14 | 243 | 1.6 | 12.9 | 0.00 | 0.00 | 0.00 | 24 | 1013.4 |
| 20260506213037 | 14 | 123 | 6.4 | 12.9 | 0.00 | 0.00 | 0.00 | 25 | 1013.5 |
| 20260506212526 | 14 | 103 | 1.6 | 14.5 | 0.00 | 0.00 | 0.00 | 23 | 1013.6 |
| 20260506212026 | 14 | 195 | 6.4 | 14.5 | 0.00 | 0.00 | 0.00 | 23 | 1013.8 |
| 20260506211544 | 13 | 282 | 3.2 | 11.3 | 0.00 | 0.00 | 0.00 | 25 | 1013.9 |
| 20260506211027 | 13 | 174 | 3.2 | 11.3 | 0.00 | 0.00 | 0.00 | 25 | 1013.9 |
| 20260506210527 | 13 | 4 | 4.8 | 11.3 | 0.00 | 0.00 | 0.00 | 24 | 1014.2 |
| 20260506210041 | 13 | 72 | 3.2 | 9.7 | 0.00 | 0.00 | 0.00 | 27 | 1014.1 |
| 20260506205525 | 13 | 237 | 3.2 | 8.0 | 0.00 | 0.00 | 0.00 | 26 | 1014.2 |
| 20260506205026 | 13 | 41 | 1.6 | 9.7 | 0.00 | 0.00 | 0.00 | 24 | 1014.3 |
| 20260506204538 | 13 | 148 | 3.2 | 9.7 | 0.00 | 0.00 | 0.00 | 25 | 1014.4 |
| 20260506204026 | 13 | 169 | 3.2 | 20.9 | 0.00 | 0.00 | 0.00 | 29 | 1014.3 |
| 20260506203526 | 13 | 162 | 6.4 | 20.9 | 0.00 | 0.00 | 0.00 | 25 | 1014.4 |
| 20260506203044 | 13 | 89 | 6.4 | 20.9 | 0.00 | 0.00 | 0.00 | 26 | 1014.6 |
| 20260506202527 | 12 | 83 | 3.2 | 12.9 | 0.00 | 0.00 | 0.00 | 26 | 1014.7 |
| 20260506202027 | 12 | 153 | 4.8 | 11.3 | 0.00 | 0.00 | 0.00 | 27 | 1014.8 |
| 20260506201537 | 12 | 236 | 4.8 | 11.3 | 0.00 | 0.00 | 0.00 | 26 | 1014.8 |